Project,Study,Ord_Occ,Event_Num,Cast_ID,Date_Time_UTC,Date_Time_PST,Lat_Dec,Lon_Dec,Sta_ID,Line,Sta,Depth,Pressure,PrQ,Temp1,Temp1Q,Temp2,Temp2Q,TempAve,Salt1,Salt1Q,Salt1_Corr,Salt2,Salt2Q,Salt2_Corr,SaltAve_Corr,Ox1,Ox1Q,Ox1_CruiseCorr,Ox1_StaCorr,Ox2,Ox2Q,Ox2_CruiseCorr,Ox2_StaCorr,OxAve_StaCorr,Ox1uM,Ox1uM_CruiseCorr,Ox1uM_StaCorr,Ox2uM,Ox2uM_CruiseCorr,Ox2uM_StaCorr,OxAveuM_StaCorr,FluorV,FluorQ,EstChl_CruiseCorr,EstChl_StaCorr,ISUSV,ISUSQ,EstNO3_CruiseCorr,EstNO3_StaCorr,SigThetaTS1,SigThetaTS1Q,SigThetaTS2,SigThetaTS2Q,BAT,XMiss,TransQ,pH,pHQ,SPAR,SPARQ,PAR,PARQ,PoT1,PoT2,DynHt,SVA,OxSat1,OxSat2,BTL_Depth,BTL_Temp,SaltB,OxB,OxBuM,Chl-a,Phaeo,NO3,NO2,NH4,PO4,SIL
CalCOFI,2105SH,025,,2105_025u,09-May-2021 15:48:20,09-May-2021 07:48:20,33.88878,-118.48905,086.7 033.0,086.7,033.0,52.000,52.380,,10.9674,,10.9688,,10.9681,33.6921,,33.6933,33.6918,,33.6937,33.6935,3.0485,,3.2542,,3.1085,,3.2792,,,132.728,141.2527,144.1040,135.338,148.4751,144.3711,144.2376,0.1015,,0.5260,1.3012,1.5483,,0.0000,,25.7640,,25.7636,,,,,,,,,,,10.9611,10.9625,0.1353,223.338,48.882,49.845,52,10.967,33.6759,3.315,144.33,1.071,1.259,17.26,0.260,1.54,1.49,18.01
CalCOFI,2105SH,025,,2105_025u,09-May-2021 15:49:17,09-May-2021 07:49:17,33.88886,-118.48898,086.7 033.0,086.7,033.0,51.000,51.373,,11.0522,,11.0369,,11.0446,33.6802,,33.6814,33.6831,,33.6850,33.6832,3.0971,,3.3050,,3.1387,,3.3105,,,134.847,143.4679,146.2246,136.659,150.7636,145.6691,145.9469,0.1224,,0.6747,1.4851,1.5564,,0.0000,,25.7396,,25.7446,,,,,,,,,,,11.0460,11.0307,0.1398,225.644,49.747,50.401,,,,,,,,,,,,
CalCOFI,2105SH,025,,2105_025u,09-May-2021 15:49:22,09-May-2021 07:49:22,33.88888,-118.48898,086.7 033.0,086.7,033.0,50.000,50.365,,11.0698,,11.0703,,11.0701,33.6775,,33.6787,33.6787,,33.6806,33.6797,3.1283,,3.3377,,3.2198,,3.3945,,,136.206,144.8886,147.5846,140.189,152.2314,149.1376,148.3611,0.1112,,0.5952,1.3865,1.5656,,0.0000,,25.7343,,25.7351,,,,,,,,,,,11.0637,11.0642,0.1404,226.124,50.267,51.738,,,,,,,,,,,,
CalCOFI,2105SH,025,,2105_025u,09-May-2021 15:49:23,09-May-2021 07:49:23,33.88888,-118.48898,086.7 033.0,086.7,033.0,49.000,49.358,,11.0744,,11.0909,,11.0827,33.6783,,33.6795,33.6765,,33.6784,33.6790,3.1942,,3.4066,,3.2553,,3.4312,,,139.076,147.8889,150.4567,141.736,155.3310,150.6577,150.5572,0.1028,,0.5353,1.3126,1.5711,,0.0000,,25.7341,,25.7297,,,,,,,,,,,11.0684,11.0849,0.1403,226.121,51.331,52.330,,,,,,,,,,,,
CalCOFI,2105SH,025,,2105_025u,09-May-2021 15:49:24,09-May-2021 07:49:24,33.88888,-118.48898,086.7 033.0,086.7,033.0,48.000,48.350,,11.1237,,11.1431,,11.1334,33.6660,,33.6672,33.6727,,33.6746,33.6709,3.2469,,3.4617,,3.2579,,3.4339,,,141.372,150.2891,152.7544,141.848,157.8107,150.7677,151.7611,0.1090,,0.5796,1.3672,1.5762,,0.0000,,25.7156,,25.7173,,,,,,,,,,,11.1178,11.1372,0.1403,227.857,52.229,52.428,,,,,,,,,,,,
CalCOFI,2105SH,025,,2105_025u,09-May-2021 15:49:25,09-May-2021 07:49:25,33.88888,-118.48898,086.7 033.0,086.7,033.0,47.000,47.343,,11.1916,,11.1567,,11.1742,33.6621,,33.6633,33.6724,,33.6743,33.6688,3.2629,,3.4784,,3.2800,,3.4568,,,142.070,151.0188,153.4529,142.813,158.5645,151.7159,152.5844,0.1190,,0.6506,1.4552,1.5817,,0.0000,,25.7003,,25.7146,,,,,,,,,,,11.1858,11.1509,0.1403,229.291,52.560,52.800,,,,,,,,,,,,
CalCOFI,2105SH,025,,2105_025u,09-May-2021 15:49:26,09-May-2021 07:49:26,33.88888,-118.48898,086.7 033.0,086.7,033.0,46.000,46.335,,11.2557,,11.1658,,11.2108,33.6556,,33.6568,33.6710,,33.6729,33.6649,3.2652,,3.4808,,3.3171,,3.4953,,,142.175,151.1285,153.5580,144.427,158.6779,153.3018,153.4299,0.1229,,0.6782,1.4895,1.5880,,0.0000,,25.6837,,25.7119,,,,,,,,,,,11.2500,11.1602,0.1403,230.853,52.668,53.406,,,,,,,,,,,,
CalCOFI,2105SH,025,,2105_025u,09-May-2021 15:49:27,09-May-2021 07:49:27,33.88888,-118.48898,086.7 033.0,086.7,033.0,45.000,45.328,,11.2526,,11.2184,,11.2355,33.6616,,33.6628,33.6667,,33.6686,33.6657,3.2706,,3.4865,,3.3285,,3.5071,,,142.408,151.3721,153.7912,144.926,158.9295,153.7921,153.7917,0.1407,,0.8032,1.6462,1.5948,,0.0000,,25.6889,,25.6991,,,,,,,,,,,11.2471,11.2129,0.1403,230.339,52.753,53.649,,,,,,,,,,,,
CalCOFI,2105SH,025,,2105_025u,09-May-2021 15:49:29,09-May-2021 07:49:29,33.88888,-118.48898,086.7 033.0,086.7,033.0,44.000,44.321,,11.2569,,11.2711,,11.2640,33.6595,,33.6607,33.6602,,33.6621,33.6614,3.2759,,3.4920,,3.3280,,3.5065,,,142.637,151.6115,154.0204,144.904,159.1769,153.7704,153.8954,0.1369,,0.7767,1.6127,1.6016,,0.0000,,25.6865,,25.6844,,,,,,,,,,,11.2515,11.2657,0.1403,230.542,52.842,53.698,,,,,,,,,,,,
CalCOFI,2105SH,025,,2105_025u,09-May-2021 15:49:30,09-May-2021 07:49:30,33.88888,-118.48898,086.7 033.0,086.7,033.0,43.000,43.313,,11.2726,,11.2763,,11.2745,33.6586,,33.6598,33.6599,,33.6618,33.6608,3.2711,,3.4870,,3.3271,,3.5056,,,142.427,151.3920,153.8102,144.869,158.9501,153.7361,153.7732,0.1232,,0.6803,1.4922,1.6085,,0.0000,,25.6829,,25.6832,,,,,,,,,,,11.2673,11.2709,0.1403,230.863,52.781,53.691,,,,,,,,,,,,
CalCOFI,2105SH,025,,2105_025u,09-May-2021 15:49:31,09-May-2021 07:49:31,33.88889,-118.48897,086.7 033.0,086.7,033.0,42.000,42.306,,11.2642,,11.2746,,11.2694,33.6597,,33.6609,33.6597,,33.6616,33.6613,3.2741,,3.4902,,3.3309,,3.5095,,,142.561,151.5321,153.9443,145.035,159.0948,153.8992,153.9218,0.1209,,0.6641,1.4719,1.6153,,0.0000,,25.6853,,25.6834,,,,,,,,,,,11.2590,11.2694,0.1403,230.609,52.822,53.750,,,,,,,,,,,,
CalCOFI,2105SH,025,,2105_025u,09-May-2021 15:49:33,09-May-2021 07:49:33,33.88890,-118.48896,086.7 033.0,086.7,033.0,41.000,41.298,,11.2680,,11.2741,,11.2711,33.6594,,33.6606,33.6596,,33.6615,33.6611,3.2855,,3.5021,,3.3443,,3.5234,,,143.057,152.0506,154.4407,145.615,159.6305,154.4691,154.4549,0.1310,,0.7353,1.5608,1.6219,,0.0000,,25.6843,,25.6834,,,,,,,,,,,11.2630,11.2691,0.1403,230.677,53.010,53.965,,,,,,,,,,,,
CalCOFI,2105SH,025,,2105_025u,09-May-2021 15:49:34,09-May-2021 07:49:34,33.88890,-118.48896,086.7 033.0,086.7,033.0,40.000,40.291,,11.2814,,11.2772,,11.2793,33.6573,,33.6585,33.6593,,33.6612,33.6599,3.3071,,3.5247,,3.3837,,3.5642,,,143.998,153.0343,155.3824,147.334,160.6467,156.1581,155.7703,0.1167,,0.6343,1.4350,1.6292,,0.0000,,25.6802,,25.6825,,,,,,,,,,,11.2765,11.2722,0.1403,231.042,53.373,54.605,,,,,,,,,,,,
CalCOFI,2105SH,025,,2105_025u,09-May-2021 15:49:36,09-May-2021 07:49:36,33.88890,-118.48896,086.7 033.0,086.7,033.0,39.000,39.284,,11.3337,,11.3524,,11.3431,33.6558,,33.6570,33.6580,,33.6599,33.6585,3.3034,,3.5208,,3.4157,,3.5974,,,143.836,152.8650,155.2202,148.730,160.4718,157.5298,156.3750,0.1395,,0.7948,1.6356,1.6391,,0.0000,,25.6695,,25.6678,,,,,,,,,,,11.3289,11.3476,0.1403,232.036,53.371,55.209,,,,,,,,,,,,
CalCOFI,2105SH,025,,2105_025u,09-May-2021 15:49:38,09-May-2021 07:49:38,33.88890,-118.48896,086.7 033.0,086.7,033.0,38.000,38.276,,11.3375,,11.5319,,11.4347,33.6540,,33.6552,33.6509,,33.6528,33.6540,3.3261,,3.5445,,3.4450,,3.6277,,,144.824,153.8978,156.2090,150.011,161.5388,158.7885,157.4988,0.1166,,0.6336,1.4341,1.6502,,0.0000,,25.6674,,25.6294,,,,,,,,,,,11.3328,11.5272,0.1403,232.218,53.741,55.893,,,,,,,,,,,,
CalCOFI,2105SH,025,,2105_025u,09-May-2021 15:49:40,09-May-2021 07:49:40,33.88890,-118.48896,086.7 033.0,086.7,033.0,37.000,37.269,,11.4075,,11.5305,,11.4690,33.6533,,33.6545,33.6555,,33.6574,33.6560,3.3634,,3.5835,,3.5176,,3.7029,,,146.452,155.5997,157.8382,153.171,163.2971,161.8934,159.8658,0.1262,,0.7015,1.5186,1.6618,,0.0000,,25.6541,,25.6332,,,,,,,,,,,11.4029,11.5258,0.1403,233.461,54.425,57.070,,,,,,,,,,,,
CalCOFI,2105SH,025,,2105_025u,09-May-2021 15:49:42,09-May-2021 07:49:42,33.88890,-118.48896,086.7 033.0,086.7,033.0,36.000,36.262,,11.5510,,11.8898,,11.7204,33.6395,,33.6407,33.6492,,33.6511,33.6459,3.3857,,3.6069,,3.5424,,3.7286,,,147.430,156.6221,158.8169,154.262,164.3533,162.9654,160.8912,0.1266,,0.7043,1.5221,1.6743,,0.0000,,25.6170,,25.5616,,,,,,,,,,,11.5465,11.8852,0.1403,236.974,54.948,57.908,,,,,,,,,,,,
CalCOFI,2105SH,025,,2105_025u,09-May-2021 15:49:44,09-May-2021 07:49:44,33.88890,-118.48896,086.7 033.0,086.7,033.0,35.000,35.254,,11.6913,,11.9022,,11.7968,33.6506,,33.6518,33.6484,,33.6503,33.6511,3.3737,,3.5943,,3.5801,,3.7677,,,146.910,156.0785,158.2965,155.901,163.7917,164.5758,161.4362,0.1266,,0.7043,1.5221,1.6872,,0.0000,,25.5997,,25.5586,,,,,,,,,,,11.6869,11.8978,0.1403,238.601,54.920,58.538,,,,,,,,,,,,
CalCOFI,2105SH,025,,2105_025u,09-May-2021 15:49:45,09-May-2021 07:49:45,33.88890,-118.48896,086.7 033.0,086.7,033.0,34.000,34.247,,11.6034,,11.9777,,11.7906,33.6802,,33.6814,33.6497,,33.6516,33.6665,3.4399,,3.6635,,3.6576,,3.8479,,,149.784,159.0830,161.1726,159.281,166.8956,167.8969,164.5348,0.1257,,0.6980,1.5142,1.7033,,0.0000,,25.6389,,25.5454,,,,,,,,,,,11.5991,11.9733,0.1403,234.840,55.903,59.902,,,,,,,,,,,,
CalCOFI,2105SH,025,,2105_025u,09-May-2021 15:49:47,09-May-2021 07:49:47,33.88892,-118.48896,086.7 033.0,086.7,033.0,33.000,33.240,,11.8109,,12.0777,,11.9443,33.6562,,33.6574,33.6589,,33.6608,33.6591,3.5677,,3.7972,,3.7728,,3.9673,,,155.358,164.9101,166.7507,164.300,172.9156,172.8285,169.7896,0.1306,,0.7325,1.5573,1.7266,,0.0000,,25.5817,,25.5336,,,,,,,,,,,11.8067,12.0734,0.1403,240.270,58.227,61.922,,,,,,,,,,,,
CalCOFI,2105SH,025,,2105_025u,09-May-2021 15:49:49,09-May-2021 07:49:49,33.88892,-118.48895,086.7 033.0,086.7,033.0,32.000,32.232,,12.0035,,12.1986,,12.1011,33.6433,,33.6445,33.6515,,33.6534,33.6490,3.6413,,3.8742,,3.8806,,4.0789,,,158.573,168.2710,169.9681,168.999,176.3878,177.4456,173.7069,0.1388,,0.7899,1.6295,1.7507,,0.0000,,25.5355,,25.5049,,,,,,,,,,,11.9994,12.1944,0.1403,244.650,59.665,63.849,,,,,,,,,,,,
CalCOFI,2105SH,025,,2105_025u,09-May-2021 15:50:30,09-May-2021 07:50:30,33.88899,-118.48888,086.7 033.0,086.7,033.0,31.000,31.225,,12.3930,,12.4034,,12.3982,33.6570,,33.6582,33.6580,,33.6599,33.6591,3.9235,,4.1693,,3.9899,,4.1921,,,170.873,181.1294,182.2772,173.764,189.6718,182.1276,182.2024,0.1624,,0.9535,1.8372,1.8853,,0.0000,,25.4719,,25.4707,,,,,,,,,,,12.3889,12.3993,0.1447,250.687,64.821,65.932,31,12.393,,,181.26,1.751,1.211,11.94,0.253,1.77,1.19,13.09
CalCOFI,2105SH,025,,2105_025u,09-May-2021 15:51:15,09-May-2021 07:51:15,33.88904,-118.48881,086.7 033.0,086.7,033.0,30.000,30.217,,12.4445,,12.4448,,12.4447,33.6582,,33.6594,33.6591,,33.6610,33.6602,4.0396,,4.2907,,4.1025,,4.3088,,,175.928,186.4139,187.3359,178.670,195.1312,186.9481,187.1420,0.1891,,1.1354,2.0722,1.9167,,0.0000,,25.4630,,25.4636,,,,,,,,,,,12.4405,12.4408,0.1497,251.516,66.809,67.851,,,,,,,,,,,,
CalCOFI,2105SH,025,,2105_025u,09-May-2021 15:51:15,09-May-2021 07:51:15,33.88905,-118.48880,086.7 033.0,086.7,033.0,29.000,29.210,,12.4600,,12.4644,,12.4622,33.6578,,33.6590,33.6596,,33.6615,33.6603,4.0559,,4.3078,,4.1216,,4.3286,,,176.640,187.1583,188.0484,179.501,195.9002,187.7646,187.9065,0.1980,,1.1952,2.1505,1.9216,,0.0000,,25.4596,,25.4602,,,,,,,,,,,12.4562,12.4605,0.1495,251.811,67.101,68.195,,,,,,,,,,,,
CalCOFI,2105SH,025,,2105_025u,09-May-2021 15:51:16,09-May-2021 07:51:16,33.88906,-118.48880,086.7 033.0,086.7,033.0,28.000,28.203,,12.4771,,12.4816,,12.4794,33.6584,,33.6596,33.6592,,33.6611,33.6604,4.0667,,4.3191,,4.1664,,4.3750,,,177.113,187.6527,188.5218,181.453,196.4110,189.6826,189.1022,0.1907,,1.1462,2.0863,1.9279,,0.0000,,25.4568,,25.4565,,,,,,,,,,,12.4734,12.4779,0.1495,252.055,67.304,68.961,,,,,,,,,,,,
CalCOFI,2105SH,025,,2105_025u,09-May-2021 15:51:17,09-May-2021 07:51:17,33.88906,-118.48880,086.7 033.0,086.7,033.0,27.000,27.196,,12.4837,,12.4933,,12.4885,33.6585,,33.6597,33.6600,,33.6619,33.6608,4.0985,,4.3523,,4.2255,,4.4362,,,178.497,189.0996,189.9068,184.024,197.9058,192.2088,191.0578,0.2002,,1.2100,2.1699,1.9359,,0.0000,,25.4555,,25.4549,,,,,,,,,,,12.4801,12.4897,0.1495,252.147,67.840,69.955,,,,,,,,,,,,
CalCOFI,2105SH,025,,2105_025u,09-May-2021 15:51:19,09-May-2021 07:51:19,33.88906,-118.48879,086.7 033.0,086.7,033.0,26.000,26.188,,12.5422,,12.5783,,12.5603,33.6573,,33.6585,33.6603,,33.6622,33.6604,4.1578,,4.4143,,4.2791,,4.4917,,,181.082,191.8019,192.4937,186.363,200.6976,194.5070,193.5004,0.2168,,1.3204,2.3160,1.9469,,0.0000,,25.4432,,25.4386,,,,,,,,,,,12.5387,12.5749,0.1495,253.292,68.905,70.969,,,,,,,,,,,,
CalCOFI,2105SH,025,,2105_025u,09-May-2021 15:51:21,09-May-2021 07:51:21,33.88906,-118.48880,086.7 033.0,086.7,033.0,25.000,25.181,,12.6437,,12.6866,,12.6652,33.6495,,33.6507,33.6550,,33.6569,33.6538,4.2286,,4.4884,,4.3480,,4.5631,,,184.167,195.0270,195.5810,189.371,204.0294,197.4626,196.5218,0.2519,,1.5497,2.6250,1.9618,,0.0000,,25.4175,,25.4134,,,,,,,,,,,12.6404,12.6832,0.1495,255.721,70.222,72.272,,,,,,,,,,,,
CalCOFI,2105SH,025,,2105_025u,09-May-2021 15:51:22,09-May-2021 07:51:22,33.88906,-118.48880,086.7 033.0,086.7,033.0,24.000,24.174,,12.7307,,12.7674,,12.7491,33.6462,,33.6474,33.6488,,33.6507,33.6491,4.2743,,4.5362,,4.4342,,4.6523,,,186.163,197.1136,197.5785,193.126,206.1851,201.1522,199.3654,0.2780,,1.7163,2.8547,1.9802,,0.0000,,25.3979,,25.3927,,,,,,,,,,,12.7275,12.7642,0.1495,257.558,71.108,73.824,,,,,,,,,,,,
CalCOFI,2105SH,025,,2105_025u,09-May-2021 15:51:24,09-May-2021 07:51:24,33.88906,-118.48879,086.7 033.0,086.7,033.0,23.000,23.166,,12.7874,,12.8428,,12.8151,33.6373,,33.6385,33.6426,,33.6445,33.6415,4.3472,,4.6124,,4.4971,,4.7175,,,189.340,200.4348,200.7578,195.869,209.6162,203.8474,202.3026,0.2371,,1.4537,2.4947,2.0003,,0.0000,,25.3798,,25.3731,,,,,,,,,,,12.7843,12.8397,0.1495,259.253,72.401,74.986,,,,,,,,,,,,
CalCOFI,2105SH,025,,2105_025u,09-May-2021 15:51:25,09-May-2021 07:51:25,33.88906,-118.48878,086.7 033.0,086.7,033.0,22.000,22.159,,12.8574,,12.9227,,12.8901,33.6341,,33.6353,33.6383,,33.6402,33.6378,4.3501,,4.6154,,4.5651,,4.7879,,,189.471,200.5718,200.8889,198.836,209.7577,206.7627,203.8258,0.2576,,1.5863,2.6751,2.0222,,0.0000,,25.3636,,25.3540,,,,,,,,,,,12.8544,12.9198,0.1495,260.772,72.553,76.244,,,,,,,,,,,,
CalCOFI,2105SH,025,,2105_025u,09-May-2021 15:51:27,09-May-2021 07:51:27,33.88906,-118.48878,086.7 033.0,086.7,033.0,21.000,21.152,,12.8813,,12.9725,,12.9269,33.6353,,33.6365,33.6395,,33.6414,33.6390,4.3708,,4.6371,,4.6881,,4.9153,,,190.371,201.5126,201.7896,204.196,210.7297,212.0293,206.9095,0.2862,,1.7679,2.9269,2.0498,,0.0000,,25.3598,,25.3450,,,,,,,,,,,12.8785,12.9696,0.1495,261.110,72.934,78.380,,,,,,,,,,,,
CalCOFI,2105SH,025,,2105_025u,09-May-2021 15:51:28,09-May-2021 07:51:28,33.88906,-118.48878,086.7 033.0,086.7,033.0,20.000,20.145,,12.8744,,13.1474,,13.0109,33.6329,,33.6341,33.6371,,33.6390,33.6366,4.6096,,4.8868,,4.8966,,5.1313,,,200.773,212.3869,212.1992,213.284,221.9639,220.9589,216.5791,0.3407,,2.1031,3.4066,2.0852,,0.0000,,25.3591,,25.3083,,,,,,,,,,,12.8717,13.1447,0.1495,261.143,76.911,82.160,,,,,,,,,,,,
CalCOFI,2105SH,025,,2105_025u,09-May-2021 15:51:30,09-May-2021 07:51:30,33.88906,-118.48878,086.7 033.0,086.7,033.0,19.000,19.137,,13.1636,,13.3626,,13.2631,33.6300,,33.6312,33.6433,,33.6452,33.6382,4.7809,,5.0660,,5.0451,,5.2851,,,208.246,220.1992,219.6778,219.760,230.0348,227.3221,223.5000,0.4089,,2.5026,4.0069,2.1237,,0.0000,,25.2996,,25.2698,,,,,,,,,,,13.1610,13.3600,0.1495,266.792,80.241,85.029,,,,,,,,,,,,
CalCOFI,2105SH,025,,2105_025u,09-May-2021 15:51:31,09-May-2021 07:51:31,33.88906,-118.48878,086.7 033.0,086.7,033.0,18.000,18.130,,13.4733,,13.6143,,13.5438,33.6240,,33.6252,33.6455,,33.6474,33.6363,4.7915,,5.0771,,5.1140,,5.3565,,,208.723,220.6978,220.1551,222.774,230.5499,230.2836,225.2194,0.4458,,2.7094,4.3316,2.1640,,0.0000,,25.2325,,25.2204,,,,,,,,,,,13.4707,13.6117,0.1495,273.153,80.929,86.637,,,,,,,,,,,,
CalCOFI,2105SH,025,,2105_025u,09-May-2021 15:51:33,09-May-2021 07:51:33,33.88906,-118.48878,086.7 033.0,086.7,033.0,17.000,17.123,,13.4520,,13.7203,,13.5862,33.6279,,33.6291,33.6484,,33.6503,33.6397,4.9098,,5.2008,,5.2199,,5.4662,,,213.874,226.0827,225.3099,227.390,236.1130,234.8191,230.0645,0.4382,,2.6673,4.2648,2.2077,,0.0000,,25.2398,,25.2009,,,,,,,,,,,13.4497,13.7179,0.1495,272.429,82.894,88.624,,,,,,,,,,,,
CalCOFI,2105SH,025,,2105_025u,09-May-2021 15:51:34,09-May-2021 07:51:34,33.88906,-118.48878,086.7 033.0,086.7,033.0,16.000,16.115,,13.5822,,13.7951,,13.6887,33.6294,,33.6306,33.6518,,33.6537,33.6422,5.1134,,5.4137,,5.4798,,5.7354,,,222.746,235.3575,234.1885,238.716,245.6948,245.9478,240.0682,0.4950,,2.9750,4.7647,2.2592,,0.0000,,25.2145,,25.1882,,,,,,,,,,,13.5800,13.7928,0.1495,274.816,86.561,93.181,,,,,,,,,,,,
CalCOFI,2105SH,025,,2105_025u,09-May-2021 15:51:36,09-May-2021 07:51:36,33.88906,-118.48878,086.7 033.0,086.7,033.0,15.000,15.108,,13.7473,,13.8696,,13.8085,33.6393,,33.6405,33.6368,,33.6387,33.6396,5.4472,,5.7628,,5.8810,,6.1509,,,237.294,250.5659,248.7472,256.199,261.4067,263.1261,255.9367,0.5039,,3.0218,4.8430,2.3240,,0.0000,,25.1883,,25.1612,,,,,,,,,,,13.7452,13.8675,0.1495,277.279,92.529,100.147,,,,,,,,,,,,
CalCOFI,2105SH,025,,2105_025u,09-May-2021 15:51:37,09-May-2021 07:51:37,33.88906,-118.48876,086.7 033.0,086.7,033.0,14.000,14.101,,14.0438,,14.1150,,14.0794,33.6117,,33.6129,33.6408,,33.6427,33.6278,5.6725,,5.9984,,6.1611,,6.4411,,,247.131,260.8495,258.5915,268.413,272.0307,275.1273,266.8594,0.4289,,2.6155,4.1829,2.3957,,0.0000,,25.1056,,25.1132,,,,,,,,,,,14.0418,14.1130,0.1495,285.128,96.924,105.442,,,,,,,,,,,,
CalCOFI,2105SH,025,,2105_025u,09-May-2021 15:51:39,09-May-2021 07:51:39,33.88907,-118.48876,086.7 033.0,086.7,033.0,13.000,13.094,,14.1978,,14.4697,,14.3338,33.5928,,33.5940,33.6322,,33.6341,33.6141,6.0712,,6.4154,,6.3568,,6.6438,,,264.511,279.0186,275.9843,276.960,290.8011,283.5254,279.7549,0.3375,,2.0839,3.3784,2.4698,,0.0000,,25.0587,,25.0318,,,,,,,,,,,14.1959,14.4678,0.1495,289.564,104.050,109.566,,,,,,,,,,,,
CalCOFI,2105SH,025,,2105_025u,09-May-2021 15:51:41,09-May-2021 07:51:41,33.88908,-118.48876,086.7 033.0,086.7,033.0,12.000,12.087,,14.5114,,14.7013,,14.6064,33.6115,,33.6127,33.6324,,33.6343,33.6235,6.3611,,6.7185,,6.4768,,6.7681,,,277.157,292.2387,288.6396,282.202,304.4588,288.6760,288.6578,0.3197,,1.9757,3.2217,2.5430,,0.0000,,25.0068,,24.9825,,,,,,,,,,,14.5097,14.6995,0.1495,294.484,109.718,112.153,,,,,,,,,,,,
CalCOFI,2105SH,025,,2105_025u,09-May-2021 15:52:22,09-May-2021 07:52:22,33.88912,-118.48868,086.7 033.0,086.7,033.0,11.000,11.079,,16.0086,,15.9735,,15.9911,33.6382,,33.6394,33.6374,,33.6393,33.6394,6.3315,,6.6876,,6.4285,,6.7180,,,275.948,290.9748,287.4297,280.173,303.1531,286.6824,287.0561,0.1417,,0.8102,1.6550,2.9659,,0.0000,,24.7005,,24.7073,,,,,,,,,,,16.0069,15.9718,0.1540,323.639,112.520,114.165,11,16.009,,,290.92,2.040,1.025,3.78,0.091,0.58,0.51,4.59
CalCOFI,2105SH,025,,2105_025u,09-May-2021 15:52:48,09-May-2021 07:52:48,33.88916,-118.48864,086.7 033.0,086.7,033.0,10.000,10.072,,15.8112,,15.8118,,15.8115,33.6365,,33.6377,33.6384,,33.6403,33.6390,6.3265,,6.6824,,6.4292,,6.7188,,,275.722,290.7386,287.2036,280.196,302.9090,286.7050,286.9543,0.2001,,1.2093,2.1690,2.9211,,0.0000,,24.7419,,24.7432,,,,,,,,,,,15.8096,15.8102,0.1567,319.661,111.994,113.815,,,,,,,,,,,,
CalCOFI,2105SH,025,,2105_025u,09-May-2021 15:52:50,09-May-2021 07:52:50,33.88916,-118.48862,086.7 033.0,086.7,033.0,9.000,9.065,,15.8528,,15.8398,,15.8463,33.6391,,33.6403,33.6406,,33.6425,33.6414,6.3265,,6.6824,,6.4398,,6.7297,,,275.721,290.7375,287.2025,280.656,302.9079,287.1570,287.1798,0.1921,,1.1556,2.0986,2.9238,,0.0000,,24.7345,,24.7386,,,,,,,,,,,15.8514,15.8384,0.1567,320.336,112.087,114.065,,,,,,,,,,,,
CalCOFI,2105SH,025,,2105_025u,09-May-2021 15:52:53,09-May-2021 07:52:53,33.88916,-118.48862,086.7 033.0,086.7,033.0,8.000,8.058,,15.8901,,15.9009,,15.8955,33.6419,,33.6431,33.6431,,33.6450,33.6441,6.3306,,6.6866,,6.4984,,6.7904,,,275.900,290.9247,287.3817,283.215,303.1013,289.6714,288.5266,0.1900,,1.1415,2.0801,2.9367,,0.0000,,24.7282,,24.7267,,,,,,,,,,,15.8889,15.8997,0.1567,320.904,112.243,115.244,,,,,,,,,,,,
CalCOFI,2105SH,025,,2105_025u,09-May-2021 15:52:55,09-May-2021 07:52:55,33.88916,-118.48862,086.7 033.0,086.7,033.0,7.000,7.050,,15.9193,,15.9442,,15.9318,33.6421,,33.6433,33.6465,,33.6484,33.6459,6.4535,,6.8152,,6.7356,,7.0361,,,281.262,296.5301,292.7476,293.557,308.8922,299.8332,296.2904,0.1896,,1.1388,2.0766,2.9580,,0.0000,,24.7217,,24.7195,,,,,,,,,,,15.9182,15.9431,0.1567,321.489,114.490,119.556,,,,,,,,,,,,
CalCOFI,2105SH,025,,2105_025u,09-May-2021 15:52:56,09-May-2021 07:52:56,33.88916,-118.48862,086.7 033.0,086.7,033.0,6.000,6.043,,16.0509,,16.0988,,16.0749,33.6427,,33.6439,33.6585,,33.6604,33.6522,6.6838,,7.0560,,7.0311,,7.3422,,,291.304,307.0280,302.7970,306.443,319.7376,312.4946,307.6458,0.2066,,1.2527,2.2262,2.9849,,0.0000,,24.6924,,24.6936,,,,,,,,,,,16.0499,16.0978,0.1567,324.254,118.883,125.192,,,,,,,,,,,,
CalCOFI,2105SH,025,,2105_025u,09-May-2021 15:52:58,09-May-2021 07:52:58,33.88916,-118.48862,086.7 033.0,086.7,033.0,5.000,5.036,,16.4049,,16.5846,,16.4948,33.6258,,33.6270,33.6388,,33.6407,33.6339,6.9406,,7.3246,,7.1606,,7.4763,,,302.526,318.7595,314.0273,312.126,331.8574,318.0786,316.0530,0.2362,,1.4479,2.4868,3.0213,,0.0000,,24.5984,,24.5669,,,,,,,,,,,16.4042,16.5837,0.1567,333.177,124.293,128.690,,,,,,,,,,,,
CalCOFI,2105SH,025,,2105_025u,09-May-2021 15:53:17,09-May-2021 07:53:17,33.88919,-118.48857,086.7 033.0,086.7,033.0,4.000,4.029,,17.3217,,17.3625,,17.3421,33.6779,,33.6791,33.6848,,33.6867,33.6829,6.9631,,7.3481,,7.1038,,7.4175,,,303.557,319.8373,315.0591,309.694,332.9709,315.6890,315.3741,0.2505,,1.5406,2.6126,3.2015,,0.0000,,24.4229,,24.4187,,,,,,,,,,,17.3210,17.3618,0.1595,349.868,126.954,129.626,4,17.322,33.6745,7.165,312.36,2.544,0.602,0.33,0.029,0.00,0.16,0.74
